Location: Allos
(44.2333°N, 6.6333°E)
Time: 06:06:10
(UTC+00:00)

CRYOSAT 2 - Pass Details

Date: 01 December 2020
Orbit: 714 x 724 km, 92.0° (Epoch: 27 January)

Event Time Altitude Azimuth Distance (km) Brightness Sun altitude
Rises 16:22:17 0° 8° (N) 3,148 7.3 -5.0°
Reaches altitude 10° 16:24:37 10° 13° (NNE) 2,223 6.5 -5.4°
Maximum altitude 16:29:28 57° 92° (E) 850 4.5 -6.2°
Drops below altitude 10° 16:34:17 10° 171° (S) 2,209 7.1 -7.0°
Sets 16:36:35 0° 176° (S) 3,126 7.9 -7.3°
